Regional Weather Roundup
Issued by NWS

Home | Current Version | Previous Version | Text Only | Print | Product List | Glossary On
Versions: 1 2 3 4 5 6 7 8 9 10 11 12 13 14 15 16 17 18 19 20 21 22 23 24 25 26 27 28 29 30 31 32 33 34 35 36 37 38 39 40 41 42 43 44 45 46 47 48 49 50
000
ASUS43 KLMK 231510
RWRKY
KENTUCKY REGIONAL WEATHER ROUNDUP
NATIONAL WEATHER SERVICE LOUISVILLE KY
1100 AM EDT SAT MAY 23 2015

NOTE "FAIR" INDICATES FEW OR NO CLOUDS BELOW 12,000 FEET
WITH NO SIGNIFICANT WEATHER AND/OR OBSTRUCTIONS TO VISIBILITY.

KYZ001>023-026-027-061>063-070>075-231600-
WESTERN AND SOUTH CENTRAL KENTUCKY

CITY           SKY/WX    TMP DP  RH WIND       PRES   REMARKS
PADUCAH        PTSUNNY   72  53  51 SE8       30.32F
HENDERSON      PTSUNNY   70  52  52 SE6       30.34F
OWENSBORO      PTSUNNY   71  53  52 SE9       30.36F
HOPKINSVILLE   PTSUNNY   68  52  56 SE5       30.35F
BOWLING GREEN  CLOUDY    73  51  46 E8        30.37F
GLASGOW        MOSUNNY   71  46  40 E9        30.37F
$$

KYZ024-025-028>034-038-045-046-053-231600-
NORTH CENTRAL KENTUCKY

CITY           SKY/WX    TMP DP  RH WIND       PRES   REMARKS
LOUISVILLE/SDF PTSUNNY   69  52  54 CALM      30.39S
LOUISVILLE/LOU PTSUNNY   68  53  58 S3        30.39F
FORT KNOX      PTSUNNY   70  53  56 VRB5      30.37F
$$

KYZ035>037-039>044-047>052-055>060-089>105-231600-
NORTHEAST KENTUCKY

CITY           SKY/WX    TMP DP  RH WIND       PRES   REMARKS
LEXINGTON      PTSUNNY   70  51  51 S8        30.40S
COVINGTON      PTSUNNY   69  52  54 CALM      30.40R
FRANKFORT      CLOUDY    71  52  50 SE7       30.39R
$$

KYZ054-064>069-076>088-106>120-231600-
SOUTHEAST KENTUCKY

CITY           SKY/WX    TMP DP  RH WIND       PRES   REMARKS
JACKSON        SUNNY     69  51  52 CALM      30.43S
LONDON         SUNNY     71  44  37 E6        30.42S
SOMERSET       MOSUNNY   70  45  40 E6        30.42S
MIDDLESBORO    SUNNY     67  49  52 CALM      30.43S
MONTICELLO     SUNNY     72  48  42 SE9       30.43F
$$



USA.gov is the U.S. government's official web portal to all federal, state and local government web resources and services.